Weather History for Winona, MN

Change the Weather History Date:

Tuesday, April 1, 2014

  Actual Average Record
Temperature  
Mean Temperature 32 °F -  
Max Temperature 35 °F 50 °F 71 °F (1997)
Min Temperature 28 °F 29 °F 21 °F (2013)
Degree Days  
Heating Degree Days 34    
Moisture  
Dew Point 25 °F    
Average Humidity 76    
Maximum Humidity 87    
Minimum Humidity 60    
Precipitation  
Precipitation 0.00 in - - ()
Sea Level Pressure  
Sea Level Pressure 29.84 in    
Wind  
Wind Speed 13 mph (West)    
Max Wind Speed 21 mph    
Max Gust Speed 31 mph    
Visibility 9 miles    
Events Snow    
Averages and records for this station are not official NWS values.
T = Trace of Precipitation, MM = Missing Value Source: NWS Daily Summary

Daily Weather History Graph

Daily Weather History Graph

Search for Another Location

Airport:

Trip Planner

Search our weather history database for the weather conditions in past years. The results will help you decide how hot, cold, wet, or windy it might be!

Date:

Astronomy

Apr. 01, 2014 Rise Set
Actual Time 6:48 AM CDT 7:33 PM CDT
Civil Twilight 6:18 AM CDT 8:03 PM CDT
Nautical Twilight 5:44 AM CDT 8:37 PM CDT
Astronomical Twilight 5:08 AM CDT 9:14 PM CDT
Moon 7:46 AM CDT (4/1) 10:02 PM CDT (4/1)
Length of Visible Light 13h 44m
Length of Day
12h 45m
Waxing Crescent, 5% of the Moon is Illuminated
Apr 1
Waxing Crescent
Apr 7
First Quarter
Apr 15
Full
Apr 22
Last Quarter
Apr 29
New

Hourly Weather History & Observations

Time (CDT) Temp. Windchill Dew Point Humidity Pressure Visibility Wind Dir Wind Speed Gust Speed Precip Events Conditions
12:00 AM 35.6 °F 27.1 °F 28.4 °F 75% 29.57 in 10.0 mi SW 12.7 mph 23.0 mph N/A   Overcast
12:20 AM 33.8 °F 22.8 °F 26.6 °F 75% 29.57 in 10.0 mi SW 18.4 mph 24.2 mph N/A   Overcast
12:40 AM 33.8 °F 23.2 °F 26.6 °F 75% 29.58 in 10.0 mi SW 17.3 mph 31.1 mph N/A   Overcast
1:00 AM 33.8 °F 25.8 °F 26.6 °F 75% 29.58 in 10.0 mi SW 10.4 mph 23.0 mph N/A   Overcast
1:19 AM 33.8 °F 25.8 °F 26.6 °F 75% 29.59 in 10.0 mi SW 10.4 mph 21.9 mph N/A   Overcast
1:40 AM 32.0 °F 22.1 °F 24.8 °F 75% 29.59 in 10.0 mi SW 13.8 mph 24.2 mph N/A   Overcast
2:00 AM 32.0 °F 23.0 °F 24.8 °F 75% 29.59 in 10.0 mi SW 11.5 mph 18.4 mph N/A   Overcast
2:19 AM 32.0 °F 23.6 °F 23.0 °F 69% 29.59 in 10.0 mi SSW 10.4 mph 23.0 mph N/A   Overcast
2:40 AM 30.2 °F 19.8 °F 23.0 °F 75% 29.61 in 10.0 mi SW 13.8 mph 24.2 mph N/A   Overcast
3:00 AM 30.2 °F 20.8 °F 23.0 °F 75% 29.61 in 10.0 mi WSW 11.5 mph 24.2 mph N/A   Overcast
3:19 AM 30.2 °F 20.8 °F 23.0 °F 75% 29.61 in 7.0 mi WSW 11.5 mph 19.6 mph N/A   Overcast
3:40 AM 30.2 °F 21.9 °F 26.6 °F 86% 29.61 in 10.0 mi WSW 9.2 mph - N/A   Overcast
4:00 AM 30.2 °F 20.8 °F 24.8 °F 80% 29.61 in 7.0 mi WSW 11.5 mph 23.0 mph N/A   Overcast
4:19 AM 30.2 °F 19.3 °F 26.6 °F 86% 29.60 in 7.0 mi WSW 15.0 mph 29.9 mph N/A   Overcast
4:40 AM 30.2 °F 21.9 °F 26.6 °F 86% 29.61 in 5.0 mi West 9.2 mph 21.9 mph N/A   Overcast
5:00 AM 30.2 °F 21.9 °F 26.6 °F 86% 29.61 in 5.0 mi West 9.2 mph 19.6 mph N/A   Overcast
5:20 AM 30.2 °F 20.8 °F 26.6 °F 86% 29.61 in 7.0 mi WSW 11.5 mph 18.4 mph N/A   Overcast
5:40 AM 30.2 °F 20.8 °F 26.6 °F 86% 29.62 in 5.0 mi West 11.5 mph 25.3 mph N/A   Overcast
6:00 AM 30.2 °F 19.3 °F 26.6 °F 86% 29.62 in 5.0 mi WSW 15.0 mph 20.7 mph N/A   Overcast
6:20 AM 30.2 °F 19.3 °F 26.6 °F 86% 29.63 in 5.0 mi West 15.0 mph 23.0 mph N/A   Overcast
6:40 AM 30.2 °F 20.2 °F 26.6 °F 86% 29.65 in 4.0 mi West 12.7 mph 21.9 mph N/A   Overcast
7:00 AM 30.2 °F 21.9 °F 26.6 °F 86% 29.67 in 4.0 mi WSW 9.2 mph 21.9 mph N/A   Overcast
7:20 AM 30.2 °F 20.2 °F 26.6 °F 86% 29.69 in 4.0 mi West 12.7 mph 17.3 mph N/A   Overcast
7:40 AM 30.2 °F 18.9 °F 26.6 °F 86% 29.70 in 5.0 mi West 16.1 mph 29.9 mph N/A   Overcast
8:00 AM 30.2 °F 17.4 °F 26.6 °F 86% 29.71 in 5.0 mi WNW 20.7 mph 26.5 mph N/A   Overcast
8:20 AM 30.2 °F 18.9 °F 26.6 °F 86% 29.72 in 10.0 mi WNW 16.1 mph 27.6 mph N/A   Overcast
8:40 AM 30.2 °F 19.3 °F 23.0 °F 75% 29.72 in 10.0 mi WNW 15.0 mph 26.5 mph N/A   Overcast
9:00 AM 28.4 °F 17.0 °F 23.0 °F 80% 29.74 in 10.0 mi WNW 15.0 mph 23.0 mph N/A   Overcast
9:20 AM 28.4 °F 16.6 °F 21.2 °F 74% 29.76 in 10.0 mi WNW 16.1 mph 24.2 mph N/A   Overcast
9:40 AM 28.4 °F 15.8 °F 21.2 °F 74% 29.78 in 7.0 mi WNW 18.4 mph 27.6 mph N/A Snow Light Snow
10:00 AM 28.4 °F 16.2 °F 21.2 °F 74% 29.80 in 2.5 mi WNW 17.3 mph 25.3 mph N/A Snow Light Snow
10:20 AM 28.4 °F 18.5 °F 23.0 °F 80% 29.81 in 1.0 mi West 11.5 mph 23.0 mph N/A Snow Light Snow
10:40 AM 28.4 °F 18.0 °F 23.0 °F 80% 29.83 in 1.8 mi WNW 12.7 mph 21.9 mph N/A Snow Light Snow
11:00 AM 28.4 °F 16.2 °F 21.2 °F 74% 29.85 in 4.0 mi WNW 17.3 mph 24.2 mph N/A Snow Light Snow
11:20 AM 30.2 °F 17.4 °F 21.2 °F 69% 29.86 in 10.0 mi WNW 20.7 mph 28.8 mph N/A   Mostly Cloudy
11:40 AM 30.2 °F 17.8 °F 21.2 °F 69% 29.88 in 10.0 mi WNW 19.6 mph 26.5 mph N/A   Overcast
12:00 PM 30.2 °F 18.5 °F 21.2 °F 69% 29.90 in 10.0 mi WNW 17.3 mph 24.2 mph N/A   Overcast
12:20 PM 30.2 °F 17.4 °F 21.2 °F 69% 29.91 in 10.0 mi WNW 20.7 mph 28.8 mph N/A   Overcast
12:40 PM 30.2 °F 19.3 °F 19.4 °F 64% 29.91 in 10.0 mi WNW 15.0 mph 25.3 mph N/A   Overcast
1:00 PM 33.8 °F 23.2 °F 23.0 °F 65% 29.90 in 10.0 mi WNW 17.3 mph 27.6 mph N/A   Overcast
1:20 PM 33.8 °F 23.2 °F 23.0 °F 65% 29.91 in 10.0 mi WNW 17.3 mph 25.3 mph N/A   Overcast
1:40 PM 33.8 °F 22.2 °F 23.0 °F 65% 29.91 in 10.0 mi NW 20.7 mph 26.5 mph N/A   Overcast
2:00 PM 33.8 °F 23.2 °F 23.0 °F 65% 29.92 in 10.0 mi WNW 17.3 mph 24.2 mph N/A   Overcast
2:20 PM 33.8 °F 23.2 °F 23.0 °F 65% 29.93 in 10.0 mi NW 17.3 mph 24.2 mph N/A   Overcast
2:40 PM 33.8 °F 23.2 °F 23.0 °F 65% 29.95 in 10.0 mi WNW 17.3 mph 23.0 mph N/A   Overcast
3:00 PM 35.6 °F 27.5 °F 23.0 °F 60% 29.95 in 10.0 mi West 11.5 mph 24.2 mph N/A   Overcast
3:20 PM 33.8 °F 24.3 °F 24.8 °F 70% 29.96 in 10.0 mi WNW 13.8 mph 20.7 mph N/A   Mostly Cloudy
3:40 PM 33.8 °F 26.4 °F 23.0 °F 65% 29.96 in 10.0 mi WNW 9.2 mph 19.6 mph N/A   Overcast
4:00 PM 33.8 °F 24.3 °F 23.0 °F 65% 29.97 in 10.0 mi WNW 13.8 mph 25.3 mph N/A   Overcast
4:20 PM 35.6 °F 28.6 °F 26.6 °F 70% 29.97 in 10.0 mi WNW 9.2 mph 21.9 mph N/A   Overcast
4:40 PM 33.8 °F 24.8 °F 24.8 °F 70% 29.98 in 10.0 mi WNW 12.7 mph 20.7 mph N/A   Overcast
5:00 PM 33.8 °F 23.9 °F 24.8 °F 70% 29.98 in 10.0 mi WNW 15.0 mph 23.0 mph N/A   Mostly Cloudy
5:20 PM 33.8 °F 26.4 °F 26.6 °F 75% 29.99 in 10.0 mi West 9.2 mph 19.6 mph N/A   Overcast
5:40 PM 33.8 °F 26.4 °F 26.6 °F 75% 30.00 in 10.0 mi WNW 9.2 mph 18.4 mph N/A   Overcast
6:00 PM 33.8 °F 25.3 °F 26.6 °F 75% 30.01 in 10.0 mi WNW 11.5 mph 16.1 mph N/A   Overcast
6:20 PM 33.8 °F 27.0 °F 26.6 °F 75% 30.02 in 10.0 mi West 8.1 mph - N/A   Overcast
6:40 PM 33.8 °F 27.0 °F 26.6 °F 75% 30.03 in 10.0 mi West 8.1 mph - N/A   Overcast
7:00 PM 33.8 °F 27.7 °F 26.6 °F 75% 30.04 in 10.0 mi West 6.9 mph - N/A   Mostly Cloudy
7:20 PM 33.8 °F 27.7 °F 26.6 °F 75% 30.05 in 10.0 mi WNW 6.9 mph - N/A   Mostly Cloudy
7:40 PM 33.8 °F 27.7 °F 26.6 °F 75% 30.06 in 10.0 mi WNW 6.9 mph - N/A   Mostly Cloudy
8:00 PM 33.8 °F 27.7 °F 26.6 °F 75% 30.06 in 10.0 mi West 6.9 mph - N/A   Scattered Clouds
8:20 PM 33.8 °F 28.6 °F 28.4 °F 81% 30.06 in 10.0 mi WNW 5.8 mph - N/A   Scattered Clouds
8:40 PM 33.8 °F 27.7 °F 28.4 °F 81% 30.07 in 10.0 mi West 6.9 mph - N/A   Scattered Clouds
9:00 PM 33.8 °F 29.6 °F 28.4 °F 81% 30.08 in 10.0 mi WNW 4.6 mph - N/A   Scattered Clouds
9:20 PM 33.8 °F 29.6 °F 28.4 °F 81% 30.08 in 10.0 mi WNW 4.6 mph - N/A   Clear
9:40 PM 33.8 °F 27.7 °F 28.4 °F 81% 30.08 in 10.0 mi WNW 6.9 mph - N/A   Scattered Clouds
10:00 PM 33.8 °F 28.6 °F 28.4 °F 81% 30.09 in 10.0 mi WNW 5.8 mph - N/A   Clear
10:20 PM 33.8 °F 27.7 °F 28.4 °F 81% 30.09 in 10.0 mi WNW 6.9 mph - N/A   Clear
10:39 PM 32.0 °F 25.6 °F 26.6 °F 80% 30.09 in 10.0 mi NW 6.9 mph - N/A   Clear
11:00 PM 32.0 °F 26.4 °F 28.4 °F 87% 30.10 in 10.0 mi WNW 5.8 mph - N/A   Clear
11:20 PM 30.2 °F 24.3 °F 26.6 °F 86% 30.11 in 10.0 mi NW 5.8 mph - N/A   Clear
11:39 PM 30.2 °F 26.7 °F 26.6 °F 86% 30.11 in 10.0 mi NW 3.5 mph - N/A   Clear